Rundle Island Observation History
Time Wind Speed Temp Pressure Rel. Hum Rain
03/02:30pm E 4-5 kts 27.1°c 1009.8 hPa n/a n/a
03/02:00pm ESE 4-5 kts 27.3°c 1010.0 hPa n/a n/a
03/01:30pm SE 3-5 kts 26.8°c 1010.5 hPa n/a n/a
03/01:00pm SSE 5-6 kts 26.5°c 1011.0 hPa n/a n/a
03/12:30pm SE 4-6 kts 26.0°c 1011.3 hPa n/a n/a
03/12:00pm SE 5-6 kts 25.6°c 1011.8 hPa n/a n/a
03/11:30am CALM 0-1 kts 29.3°c 1012.2 hPa n/a n/a
03/11:00am NE 2-3 kts 26.0°c 1012.7 hPa n/a n/a
03/10:30am ESE 4-7 kts 25.9°c 1012.8 hPa n/a n/a
03/10:00am SE 6-7 kts 25.7°c 1012.9 hPa n/a n/a
03/09:30am SSE 8-9 kts 25.7°c 1013.2 hPa n/a n/a
03/09:00am SSE 7-9 kts 25.5°c 1013.1 hPa n/a n/a
03/08:30am SE 8-9 kts 25.5°c 1013.2 hPa n/a n/a
03/08:00am SE 4-5 kts 25.8°c 1013.1 hPa n/a n/a
03/07:30am SSE 7-8 kts 24.8°c 1012.8 hPa n/a n/a
03/07:00am ESE 7-8 kts 25.8°c 1012.2 hPa n/a n/a
03/06:30am ESE 7-8 kts 25.3°c 1012.1 hPa n/a n/a
03/06:00am E 7-9 kts 25.3°c 1011.7 hPa n/a n/a
03/05:30am ESE 9-10 kts 25.2°c 1011.4 hPa n/a n/a
03/05:00am E 8-9 kts 25.3°c 1011.1 hPa n/a n/a
03/04:30am ESE 7-9 kts 25.3°c 1011.1 hPa n/a n/a
03/04:00am E 7-9 kts 25.2°c 1010.9 hPa n/a n/a
03/03:30am E 8-10 kts 25.2°c 1011.1 hPa n/a n/a
03/03:00am ESE 6-8 kts 25.2°c 1011.2 hPa n/a n/a
03/02:30am ESE 7-9 kts 25.2°c 1011.3 hPa n/a n/a
03/02:00am ESE 7-9 kts 25.4°c 1011.6 hPa n/a n/a
03/01:30am ESE 7-9 kts 25.3°c 1011.9 hPa n/a n/a
03/01:00am ESE 8-10 kts 25.3°c 1012.2 hPa n/a n/a
03/12:30am ESE 9-11 kts 25.2°c 1012.4 hPa n/a n/a
03/12:00am E 10-12 kts 25.3°c 1012.7 hPa n/a n/a
Time Wind Speed Temp Pressure Rel. Hum Rain
02/11:30pm ESE 10-11 kts 25.3°c 1012.9 hPa n/a n/a
02/11:00pm ESE 9-11 kts 25.4°c 1013.1 hPa n/a n/a
02/10:30pm ESE 7-8 kts 25.3°c 1013.4 hPa n/a n/a
02/10:00pm ESE 7-8 kts 25.5°c 1013.5 hPa n/a n/a
02/09:30pm ESE 9-10 kts 25.3°c 1013.6 hPa n/a n/a
02/09:00pm E 6-7 kts 25.3°c 1013.7 hPa n/a n/a
02/08:30pm ESE 6-7 kts 25.3°c 1013.7 hPa n/a n/a
02/08:00pm ESE 6-7 kts 25.0°c 1013.5 hPa n/a n/a
02/07:30pm E 7-8 kts 25.1°c 1013.3 hPa n/a n/a
02/07:00pm E 10-11 kts 25.2°c 1013.0 hPa n/a n/a
02/06:30pm E 11-13 kts 25.1°c 1012.5 hPa n/a n/a
02/06:00pm E 12-13 kts 25.5°c 1012.4 hPa n/a n/a
02/05:30pm E 9-11 kts 25.1°c 1012.4 hPa n/a n/a
02/05:00pm E 10-11 kts 25.3°c 1012.4 hPa n/a n/a
02/04:30pm E 11-13 kts 25.5°c 1012.3 hPa n/a n/a
02/04:00pm E 10-13 kts 25.6°c 1012.3 hPa n/a n/a
02/03:30pm E 11-13 kts 25.8°c 1012.3 hPa n/a n/a
02/03:00pm ESE 9-10 kts 25.9°c 1012.5 hPa n/a n/a
02/02:30pm ESE 9-11 kts 25.9°c 1012.7 hPa n/a n/a
02/02:00pm E 8-10 kts 26.2°c 1012.8 hPa n/a n/a
02/01:30pm E 10-12 kts 25.8°c 1013.1 hPa n/a n/a
02/01:00pm ESE 12-15 kts 26.1°c 1013.3 hPa n/a n/a
02/12:30pm SE 12-14 kts 25.9°c 1013.7 hPa n/a n/a
02/12:00pm SSE 11-13 kts 26.4°c 1014.2 hPa n/a n/a
02/11:30am SSE 11-14 kts 25.8°c 1014.7 hPa n/a n/a
02/11:00am SSE 11-12 kts 25.7°c 1014.8 hPa n/a n/a
02/10:30am SSE 12-13 kts 25.2°c 1015.0 hPa n/a n/a
02/10:00am SSE 12-13 kts 24.9°c 1015.2 hPa n/a n/a
02/09:30am SSE 13-15 kts 25.0°c 1015.1 hPa n/a n/a
02/09:00am SSE 12-13 kts 24.9°c 1015.0 hPa n/a n/a
02/08:30am SSE 14-16 kts 24.8°c 1015.0 hPa n/a n/a
02/08:00am SSE 15-18 kts 24.5°c 1014.8 hPa n/a n/a
02/07:30am SSE 15-18 kts 24.4°c 1014.5 hPa n/a n/a
02/07:00am S 14-17 kts 24.6°c 1014.4 hPa n/a n/a
02/06:30am SSE 13-15 kts 24.3°c 1013.9 hPa n/a n/a
02/06:00am SSE 14-15 kts 24.4°c 1013.6 hPa n/a n/a
02/05:30am SSE 13-15 kts 24.2°c 1013.4 hPa n/a n/a
02/05:00am SSE 14-16 kts 24.7°c 1013.5 hPa n/a n/a
02/04:30am SSE 12-15 kts 24.7°c 1013.1 hPa n/a n/a
02/04:00am SE 12-15 kts 25.4°c 1013.0 hPa n/a n/a
02/03:30am ESE 11-14 kts 25.3°c 1012.8 hPa n/a n/a
02/03:00am ESE 12-13 kts 25.3°c 1012.9 hPa n/a n/a
02/02:30am ESE 13-15 kts 25.4°c 1013.3 hPa n/a n/a
02/02:00am ESE 10-11 kts 25.5°c 1013.7 hPa n/a n/a
02/01:30am ESE 11-13 kts 25.3°c 1014.2 hPa n/a n/a
02/01:00am ESE 12-14 kts 25.4°c 1014.5 hPa n/a n/a
02/12:30am E 12-14 kts 25.5°c 1014.8 hPa n/a n/a
02/12:00am ESE 10-13 kts 25.5°c 1015.4 hPa n/a n/a
Time Wind Speed Temp Pressure Rel. Hum Rain
01/11:30pm ESE 10-12 kts 25.4°c 1015.6 hPa n/a n/a
01/11:00pm ESE 10-12 kts 25.5°c 1015.6 hPa n/a n/a
01/10:30pm ESE 10-11 kts 25.5°c 1015.8 hPa n/a n/a
01/10:00pm E 10-13 kts 25.6°c 1015.9 hPa n/a n/a
01/09:30pm E 12-13 kts 25.8°c 1015.9 hPa n/a n/a
01/09:00pm E 12-14 kts 25.6°c 1015.5 hPa n/a n/a
01/08:30pm E 13-15 kts 25.8°c 1015.1 hPa n/a n/a
01/08:00pm E 12-15 kts 25.7°c 1014.9 hPa n/a n/a
01/07:30pm ESE 11-13 kts 25.7°c 1014.8 hPa n/a n/a
01/07:00pm E 11-13 kts 25.6°c 1014.5 hPa n/a n/a
01/06:30pm E 11-13 kts 25.8°c 1014.3 hPa n/a n/a
01/06:00pm E 10-11 kts 25.8°c 1014.3 hPa n/a n/a
01/05:30pm E 10-12 kts 25.9°c 1014.3 hPa n/a n/a
01/05:00pm E 9-11 kts 26.1°c 1014.1 hPa n/a n/a
01/04:30pm E 10-13 kts 26.0°c 1014.0 hPa n/a n/a
01/04:00pm E 11-13 kts 26.2°c 1013.6 hPa n/a n/a
01/03:30pm ESE 11-12 kts 26.2°c 1013.8 hPa n/a n/a
01/03:00pm ESE 10-13 kts 26.2°c 1013.8 hPa n/a n/a
01/02:30pm ESE 10-12 kts 26.3°c 1014.2 hPa n/a n/a
01/02:00pm ESE 9-11 kts 26.3°c 1014.4 hPa n/a n/a
01/01:30pm ESE 9-11 kts 26.1°c 1014.8 hPa n/a n/a
01/01:00pm ESE 10-11 kts 26.0°c 1014.9 hPa n/a n/a
01/12:30pm SE 10-11 kts 26.0°c 1015.1 hPa n/a n/a
01/12:00pm SE 9-11 kts 25.8°c 1015.5 hPa n/a n/a
01/11:30am SE 9 kts 26.0°c 1015.8 hPa n/a n/a
01/11:00am SE 9-11 kts 26.2°c 1016.2 hPa n/a n/a
01/10:30am SE 10-11 kts 26.1°c 1016.3 hPa n/a n/a
01/10:00am SE 12-13 kts 25.2°c 1016.3 hPa n/a n/a
01/09:30am SSE 12-15 kts 25.1°c 1016.0 hPa n/a n/a
01/09:00am SSE 13-16 kts 24.6°c 1016.1 hPa n/a n/a
01/08:30am SSE 13-15 kts 24.6°c 1015.9 hPa n/a n/a
01/08:00am SE 12-14 kts 25.0°c 1015.7 hPa n/a n/a
01/07:30am SE 9-10 kts 25.7°c 1015.5 hPa n/a n/a
01/07:00am ESE 8-9 kts 25.6°c 1015.3 hPa n/a n/a
01/06:30am ESE 8-10 kts 25.4°c 1015.1 hPa n/a n/a
01/06:00am ESE 8-9 kts 25.5°c 1014.8 hPa n/a n/a
01/05:30am ESE 8-9 kts 25.3°c 1014.7 hPa n/a n/a
01/05:00am ESE 7-9 kts 25.4°c 1014.3 hPa n/a n/a
01/04:30am E 8-10 kts 25.3°c 1013.9 hPa n/a n/a
01/04:00am E 9-10 kts 25.3°c 1013.6 hPa n/a n/a
01/03:30am E 9-10 kts 25.5°c 1013.6 hPa n/a n/a
01/03:00am E 8-10 kts 25.5°c 1013.6 hPa n/a n/a
01/02:30am E 7-8 kts 25.3°c 1013.8 hPa n/a n/a
01/02:00am E 6 kts 25.5°c 1014.3 hPa n/a n/a
01/01:30am E 7-8 kts 25.4°c 1014.2 hPa n/a n/a
01/01:00am E 7-9 kts 25.4°c 1014.4 hPa n/a n/a
01/12:30am E 8-10 kts 25.4°c 1014.5 hPa n/a n/a
01/12:00am E 8-9 kts 25.4°c 1014.5 hPa n/a n/a